User: anonymous
Location: Oshawa
(43.9000°N, 78.8670°W)
Time: 23:18:43
(UTC-04:00)
Language:

CARTOSAT-1 - Orbit

View from above orbital plane
View from above orbital plane
View from above satellite
View from above satellite

Ground track
Ground track

The orbit data is extracted from the following two-line orbital elements,

1 28649U 05017A   14113.76513699  .00002504  00000-0  31103-3 0  1374
2 28649 097.8356 188.7482 0002446 120.6430 239.5007 14.83470924485420
Epoch (UTC): 23 April 2014 18:21:47
Eccentricity: 0.0002446
inclination: 97.8356°
perigee height: 616 km
apogee height: 620 km
right ascension of ascending node: 188.7482°
argument of perigee: 120.6430°
revolutions per day: 14.83470924
mean anomaly at epoch: 239.5007°
orbit number at epoch: 48542

The dashed part of the orbit path shows where the satellite is in the earth's shadow,  

DLR